Torna al catalogo

COSMOS 982

AttivoMilitareLEO
NORAD 10589·PAYLOAD·🇷🇺 Russia

Lanciato Jan 10, 1978 da Plesetsk Cosmodrome

Loading…

Prossimi Passaggi (prossime 24 ore)

TLE

AggiornatoSource: Space-Track

Epoca: Sep 14, 2026, 14:09 UTC

1 10589U 78005G   26257.59017439 -.00000007  00000-0  57275-4 0  9991
2 10589  74.0281 109.4311 0032555 130.0848 258.1111 12.44139320210720

Traccia COSMOS 982 in tempo reale con AllMySat

Download on the App Store